Location: Avully
(45.9633°N, 6.0228°E)
Time: 11:01:20
(UTC+00:00)

AQUA - Pass Details

Date: 23 May 2024
Orbit: 688 x 690 km, 98.4° (Epoch: 14 May)

Event Time Altitude Azimuth Distance (km) Brightness Sun altitude
Rises 00:28:54 0° 36° (NE) 3,067 8.3 -22.2°
Reaches altitude 10° 00:33:48 10° 82° (E) 2,141 6.6 -22.0°
Drops below altitude 10° 00:34:37 10° 92° (E) 2,140 6.5 -21.9°
Enters shadow 00:37:12 - 120° (ESE) 2,468 6.5 -21.8°
Exits shadow 01:10:52 -65° 191° (SSW) 12,343 10.1 -19.8°
Maximum altitude 02:12:24 87° 101° (E) 696 3.8 -14.2°
